[[{"header":{"parameterUnit":"m.s-1","parameterCategory":1,"la1":30.2991,"la2":30.254,"lo1":-89.0895,"lo2":-89.0444,"dy":0.0017,"dx":0.0017,"nx":28,"ny":28,"refTime":"2025-09-14T21:00:00:Z","depth":0,"parameterNumber":2,"parameterNumberName":"U-component_of_WINDS"},"data":[0,0,0,0,0,0,0,0,0,0,0,0,0,0,0,0,0,0,0,0,0,0,0,0,0,0,0,0,0,0,0,0,0,0,0,0,0,0,0,0,0,0,0,0,0,0,0,0,0,0,0,0,0,0,0,0,0,0,1.3167,1.3168,0,1.3244,1.3244,1.3245,1.3259,1.3258,1.3258,1.3257,1.3335,1.3338,1.334,0,0,0,0,0,0,0,0,0,0,0,0,0,1.3031,1.3033,1.3167,1.3168,1.3169,1.3243,1.3244,1.3245,1.3259,1.3258,1.3258,1.3257,1.3334,1.3337,1.3341,0,0,0,0,0,0,0,0,0,0,0,0,0,1.3097,1.3034,1.3167,1.3185,1.3187,1.3243,1.3244,1.3246,1.3259,1.3258,1.3257,1.3257,1.3333,1.3337,1.3341,1.3384,0,0,1.3353,1.3355,0,0,0,0,0,0,0,0,1.3093,1.3102,1.3181,1.3184,1.3186,1.3241,1.3225,1.3292,1.326,1.3232,1.3257,1.3256,1.3304,1.3311,1.3327,1.3388,1.3391,1.3353,1.3356,1.3358,1.3359,0,0,0,0,0,0,0,1.3089,1.3099,1.3197,1.3182,1.3185,1.3188,1.3197,1.3238,1.3272,1.3234,1.3235,1.3244,1.3306,1.3323,1.3329,1.3392,1.3353,1.3357,1.3359,1.3361,1.349,1.3491,0,0,0,0,0,0,1.3081,1.3095,1.3195,1.32,1.3137,1.3192,1.3201,1.3224,1.3272,1.3278,1.3245,1.3245,1.3317,1.3324,1.3332,1.3384,1.3358,1.3361,1.3364,1.3489,1.3491,1.3492,0,0,0,0,0,0,1.3078,1.309,1.3192,1.3148,1.3161,1.3195,1.3221,1.3226,1.3244,1.328,1.3286,1.3257,1.3316,1.3326,1.3371,1.3387,1.3363,1.3367,1.3488,1.349,1.3491,1.349,0,0,0,0,0,0,1.3074,1.3089,1.3106,1.3148,1.3163,1.323,1.3222,1.3228,1.3251,1.3251,1.3293,1.3299,1.3316,1.3365,1.3375,1.3392,1.337,1.3487,1.3489,1.3491,1.3488,1.3491,1.3493,0,0,0,0,0,1.3069,1.3103,1.3107,1.3119,1.3186,1.3231,1.3239,1.3259,1.3252,1.3269,1.3292,1.3298,1.3384,1.3369,1.338,1.3399,1.3486,1.3488,1.349,1.3487,1.3491,1.3493,0,0,0,0,0,0,1.3062,1.3109,1.3114,1.3162,1.3192,1.3233,1.3255,1.3262,1.3295,1.3294,1.3317,1.3326,1.3369,1.3389,1.3372,1.3443,1.3434,1.3439,1.3428,1.3431,1.3434,1.3427,1.3373,0,0,0,0,0,1.3067,1.31,1.3139,1.3178,1.3192,1.3221,1.3242,1.3254,1.3286,1.3299,1.3326,1.3356,1.339,1.3412,1.3445,1.3492,1.35,1.351,1.3512,1.3514,1.3518,1.3542,1.3546,1.3499,1.3499,1.3499,0,0,1.3076,1.3105,1.3125,1.3177,1.3202,1.3235,1.3232,1.3268,1.3292,1.3305,1.3348,1.3368,1.3404,1.3449,1.347,1.3467,1.3532,1.3517,1.3518,1.3521,1.3544,1.3549,1.3553,1.3501,1.3501,1.35,0,0,1.3108,1.3135,1.3169,1.3194,1.3231,1.325,1.3258,1.3298,1.3311,1.3355,1.3365,1.3394,1.3452,1.3476,1.3497,1.3537,1.3542,1.3547,1.3559,1.3582,1.3586,1.3589,1.3602,1.3606,1.3551,1.3551,1.3551,0,1.3114,1.3165,1.3186,1.322,1.3242,1.3255,1.3289,1.3312,1.3359,1.3373,1.3369,1.3441,1.3466,1.3516,1.3525,1.3542,1.3551,1.3542,1.3584,1.3587,1.3591,1.3603,1.3608,1.3551,1.3551,1.3551,1.3551,0,1.317,1.3205,1.3228,1.3272,1.3296,1.3331,1.3355,1.3378,1.3388,1.3407,1.345,1.348,1.3519,1.3532,1.3542,1.3583,1.3579,1.3579,1.3571,1.3595,1.3607,1.3612,1.3551,1.3551,1.3551,1.3551,0,0,1.3201,1.3255,1.3263,1.3282,1.3323,1.335,1.3385,1.3422,1.344,1.3471,1.35,1.3548,1.3547,1.357,1.3583,1.3604,1.3631,1.3601,1.3602,1.3604,1.3675,1.3674,1.3679,1.3635,1.3636,1.3637,1.3672,0,1.3237,1.3299,1.3317,1.3368,1.34,1.3412,1.3441,1.3469,1.3487,1.3516,1.3536,1.3569,1.3567,1.3581,1.3602,1.3623,1.3645,1.3621,1.3661,1.3662,1.365,1.3686,1.3685,1.3716,1.3677,1.3677,1.3678,0,1.3288,1.3319,1.3373,1.3409,1.3423,1.3449,1.3484,1.3512,1.3544,1.3555,1.358,1.3591,1.3626,1.3616,1.3664,1.3647,1.3664,1.3677,1.3679,1.3682,1.367,1.3689,1.3727,1.3731,1.3686,1.3685,1.3685,0,1.3302,1.3358,1.3398,1.3414,1.3457,1.3475,1.3494,1.3525,1.3545,1.3576,1.3589,1.3624,1.3642,1.3668,1.3688,1.3679,1.3733,1.3725,1.3743,1.3742,1.3753,1.3751,1.3793,1.3766,1.3766,1.3766,1.3766,0,1.334,1.3372,1.3404,1.3428,1.3464,1.3485,1.352,1.3539,1.3566,1.3593,1.3606,1.3631,1.3656,1.3684,1.37,1.3736,1.3745,1.3754,1.3758,1.3752,1.3751,1.3763,1.3761,1.3767,1.3767,1.3766,1.3766,0,1.3362,1.3385,1.3428,1.3466,1.3476,1.35,1.3532,1.3555,1.3573,1.3607,1.3616,1.3645,1.3678,1.3701,1.3744,1.3754,1.3793,1.3797,1.3782,1.3783,1.3799,1.3796,1.3848,1.3855,1.3825,1.3825,1.3825,0,1.3384,1.3409,1.3449,1.3468,1.3486,1.3517,1.3538,1.3559,1.3581,1.3618,1.3636,1.367,1.3699,1.3751,1.3776,1.3808,1.3812,1.3828,1.3817,1.381,1.381,1.3808,1.381,1.3829,1.383,1.383,1.383,0,1.342,1.343,1.346,1.3493,1.3518,1.3545,1.3573,1.3587,1.3613,1.3636,1.3671,1.3693,1.3736,1.3769,1.3804,1.3823,1.383,1.3833,1.3839,1.3833,1.3823,1.3827,1.3785,1.3832,1.3832,1.3831,1.3831,1.3831,1.3442,1.3464,1.3494,1.3527,1.355,1.3575,1.3597,1.3618,1.3647,1.3684,1.3695,1.373,1.376,1.3807,1.3826,1.3853,1.3852,1.386,1.3862,1.3863,1.3862,1.3819,1.386,1.386,1.386,1.386,1.386,0,1.3477,1.3497,1.3527,1.3564,1.3589,1.3594,1.3624,1.3645,1.3676,1.3703,1.373,1.3769,1.3801,1.3827,1.386,1.3877,1.3881,1.3884,1.3883,1.3887,1.3863,1.3854,1.388,1.388,1.388,1.388,1.388,1.388,1.3498,1.3534,1.3548,1.3595,1.3615,1.3649,1.3666,1.3689,1.371,1.3752,1.3779,1.3796,1.3822,1.3857,1.3886,1.3893,1.3904,1.3907,1.3914,1.3891,1.3889,1.3886,1.3878,1.3909,1.3909,1.3936,1.3936,1.3936]},{"header":{"parameterUnit":"m.s-1","parameterCategory":1,"la1":30.2991,"la2":30.254,"lo1":-89.0895,"lo2":-89.0444,"dy":0.0017,"dx":0.0017,"nx":28,"ny":28,"refTime":"2025-09-14T21:00:00:Z","depth":0,"parameterNumber":3,"parameterNumberName":"V-component_of_WINDS"},"data":[0,0,0,0,0,0,0,0,0,0,0,0,0,0,0,0,0,0,0,0,0,0,0,0,0,0,0,0,0,0,0,0,0,0,0,0,0,0,0,0,0,0,0,0,0,0,0,0,0,0,0,0,0,0,0,0,0,0,2.7801,2.78,0,2.7763,2.7763,2.7763,2.7696,2.7695,2.7694,2.7693,2.7654,2.7654,2.7654,0,0,0,0,0,0,0,0,0,0,0,0,0,2.7813,2.7814,2.7801,2.78,2.78,2.7763,2.7763,2.7762,2.7696,2.7695,2.7693,2.7692,2.7654,2.7654,2.7654,0,0,0,0,0,0,0,0,0,0,0,0,0,2.7795,2.7814,2.7801,2.7763,2.7759,2.7764,2.7763,2.7762,2.7697,2.7695,2.7693,2.7691,2.7654,2.7654,2.7654,2.7693,0,0,2.7655,2.7655,0,0,0,0,0,0,0,0,2.7796,2.7795,2.7769,2.7765,2.7761,2.7733,2.7753,2.7739,2.7697,2.772,2.7693,2.769,2.7682,2.7679,2.7676,2.7691,2.769,2.7655,2.7655,2.7655,2.7655,0,0,0,0,0,0,0,2.7798,2.7796,2.7786,2.7768,2.7764,2.7747,2.7742,2.775,2.7712,2.7718,2.7713,2.771,2.7679,2.7676,2.7675,2.7689,2.7655,2.7655,2.7655,2.7655,2.7731,2.7733,0,0,0,0,0,0,2.7805,2.7798,2.7787,2.7785,2.7774,2.7748,2.7743,2.7744,2.7712,2.7705,2.7711,2.7707,2.7677,2.7675,2.7673,2.7715,2.7655,2.7655,2.7655,2.7729,2.7732,2.7734,0,0,0,0,0,0,2.7805,2.7804,2.7789,2.779,2.7787,2.775,2.7751,2.7744,2.7741,2.7707,2.7699,2.7716,2.7675,2.7673,2.7688,2.7713,2.7655,2.7656,2.7727,2.773,2.7733,2.78,0,0,0,0,0,0,2.7806,2.7805,2.782,2.7791,2.7787,2.7805,2.7753,2.7744,2.7742,2.7735,2.7709,2.7703,2.7674,2.7688,2.7688,2.7712,2.7656,2.7725,2.7728,2.7732,2.7795,2.7804,2.7812,0,0,0,0,0,2.7807,2.7841,2.7821,2.782,2.7805,2.7806,2.7804,2.777,2.7744,2.7758,2.7736,2.7703,2.771,2.769,2.769,2.7714,2.7723,2.7727,2.7731,2.7791,2.7803,2.7812,0,0,0,0,0,0,2.7874,2.7836,2.7814,2.784,2.7827,2.7795,2.7812,2.7784,2.7778,2.7772,2.773,2.7725,2.7745,2.7731,2.7709,2.7749,2.7711,2.7716,2.7757,2.7767,2.7776,2.7778,2.7656,0,0,0,0,0,2.7892,2.7897,2.7863,2.7889,2.7884,2.7849,2.7849,2.7824,2.7809,2.7803,2.7781,2.7768,2.7766,2.7766,2.7763,2.7793,2.7785,2.7809,2.7818,2.7825,2.7829,2.7841,2.7851,2.7748,2.7748,2.7748,0,0,2.7929,2.7909,2.7915,2.7902,2.7889,2.7894,2.7845,2.7853,2.7856,2.7804,2.7816,2.78,2.7782,2.7804,2.7812,2.7793,2.7856,2.7831,2.7837,2.7836,2.7847,2.7856,2.7865,2.7751,2.775,2.775,0,0,2.7999,2.7985,2.8004,2.7991,2.7972,2.7949,2.7953,2.7926,2.7913,2.7925,2.7885,2.7888,2.7887,2.7875,2.7868,2.7932,2.7901,2.7932,2.7977,2.799,2.7998,2.8005,2.8025,2.8033,2.7936,2.7937,2.7937,0,2.8047,2.8053,2.8017,2.8027,2.8022,2.7975,2.7993,2.7983,2.7964,2.7961,2.7939,2.7936,2.792,2.7938,2.7953,2.795,2.7953,2.7935,2.8,2.8006,2.8012,2.8031,2.8039,2.794,2.794,2.794,2.7939,0,2.8113,2.8118,2.8135,2.8117,2.8114,2.8129,2.8094,2.8095,2.807,2.8049,2.806,2.804,2.8031,2.8033,2.801,2.8047,2.8035,2.8007,2.7969,2.8026,2.8043,2.8051,2.7946,2.7944,2.7943,2.7942,0,0,2.8224,2.8185,2.8192,2.8182,2.8157,2.8159,2.8171,2.8162,2.8163,2.8151,2.8159,2.8158,2.8132,2.8125,2.8099,2.811,2.8159,2.8081,2.808,2.8094,2.8196,2.8216,2.8225,2.8139,2.814,2.8141,2.8197,0,2.8287,2.8304,2.8271,2.8296,2.8299,2.8253,2.8263,2.8248,2.8228,2.8227,2.8205,2.8204,2.8171,2.8166,2.8175,2.8152,2.8179,2.8147,2.8144,2.8144,2.8149,2.8235,2.8256,2.831,2.8204,2.8205,2.8206,0,2.8362,2.8353,2.8379,2.835,2.835,2.8359,2.8347,2.8348,2.8329,2.8314,2.8305,2.8275,2.8282,2.8246,2.8255,2.8234,2.8231,2.8219,2.822,2.8218,2.8178,2.8233,2.8326,2.8334,2.8216,2.8216,2.8215,0,2.8438,2.8433,2.8447,2.844,2.8408,2.8415,2.8402,2.8381,2.8377,2.8367,2.8364,2.8355,2.8349,2.8342,2.8309,2.8287,2.8322,2.8283,2.8308,2.8308,2.8316,2.8316,2.8409,2.8317,2.8317,2.8317,2.8317,0,2.8511,2.8528,2.848,2.8488,2.8505,2.8467,2.8484,2.8466,2.8448,2.8451,2.8412,2.8416,2.8373,2.8371,2.8346,2.8356,2.8354,2.8341,2.8333,2.8343,2.8345,2.834,2.8334,2.8319,2.8318,2.8318,2.8318,0,2.8599,2.8568,2.8579,2.8547,2.8539,2.8553,2.8525,2.8531,2.8508,2.8512,2.8511,2.8475,2.8471,2.8438,2.8427,2.8409,2.8428,2.8415,2.8435,2.843,2.8455,2.8453,2.8547,2.8556,2.846,2.8461,2.8462,0,2.8646,2.8658,2.8627,2.8626,2.8615,2.8614,2.861,2.8572,2.8569,2.8548,2.8556,2.8549,2.8541,2.8536,2.8508,2.8499,2.8484,2.8517,2.8482,2.8491,2.8482,2.8481,2.8481,2.8525,2.8526,2.8527,2.8528,0,2.8734,2.8717,2.8713,2.8702,2.8698,2.8688,2.8676,2.8677,2.8636,2.8634,2.8629,2.8623,2.8611,2.8604,2.8589,2.8574,2.8544,2.8539,2.8544,2.8553,2.8564,2.8556,2.8453,2.8537,2.8536,2.8535,2.8535,2.8534,2.8801,2.8809,2.8788,2.8783,2.877,2.8759,2.8762,2.8739,2.8735,2.8722,2.87,2.8698,2.8677,2.8655,2.8642,2.8639,2.8621,2.8629,2.863,2.8632,2.8637,2.8565,2.8637,2.8636,2.8636,2.8636,2.8635,0,2.8885,2.8869,2.8865,2.8849,2.8845,2.8817,2.8801,2.88,2.8798,2.8782,2.8775,2.8768,2.8761,2.8732,2.8721,2.8724,2.8709,2.8722,2.872,2.8717,2.8654,2.865,2.8734,2.8734,2.8734,2.8734,2.8734,2.8734,2.8928,2.8938,2.8919,2.8922,2.8906,2.8904,2.8897,2.8886,2.8872,2.8867,2.886,2.8842,2.8819,2.8806,2.8797,2.8789,2.8786,2.8803,2.879,2.8731,2.8722,2.8713,2.8709,2.8803,2.8803,2.8852,2.8853,2.8853]}]]